Content
SEND FEEDBACK

Daily
Averages
Monthly
Summary
United States of America

LAKE CLARK NATIONAL PARK, ALASKA


Home > North America > United States > Alaska
Elevation: 160 feet     Latitude: 59 45N     Longitude: 154 55W

WEATHER
 
SELECT A DAY
Number of Records: 197,045;   Date Range: 1/1/95 - 11/22/14
 
SHARE

PRINT THIS DATA

[ ← Previous Day ]
WEATHER ALMANAC - JANUARY 3, 2013
[ Next Day → ]
[ °C ]   °F
Weather ElementAverageHighLow
Temperature35.4 °F37.9 °F (11:53 am)33.1 °F (12:53 am)
Dewpoint31 °F33.8 °F (12:30 am)28 °F (5:53 am)
Humidity84.6 %100 % (12:30 am)68 % (11:53 am)
Barometer29.38 in29.52 in (11:53 pm)29.25 in (12:30 am)
Wind Speed15.2 mph24.2 mph (12:39 am)
Wind Gust35.7 mph (12:30 am)
Weather ElementAverage
Visibility9.5 mi
Wind DirectionE (86.3 °)

Weather ElementTotal
Precipitation0.03 in
Heating Degree Days29.5 (Base 65)
Averaged from 30 records on January 3, 2013
WEATHER CONDITIONS BREAKOUT
WIND DIRECTION BREAKOUT
WEATHER BY HOUR - JANUARY 3, 2013
[ °C ]   °F
Local TimeTemperatureDewpointHumidityBarometerVisibilityWind DirectionWind SpeedGust SpeedPrecipitationEventsConditions
12:30 AM33.8 °F33.8 °F100 %29.25 in2.5 miEast (90°)20.7 mph35.7 mph0.00 inSnowLight Snow
12:39 AM33.8 °F33.8 °F100 %29.26 in5.0 miEast (80°)24.2 mph33.4 mph0.01 inSnowLight Snow
12:49 AM33.8 °F33.8 °F100 %29.27 in9.0 miEast (80°)19.6 mph33.4 mph0.01 inSnowLight Snow
12:53 AM33.1 °F33.1 °F100 %29.28 in9.0 miEast (80°)19.6 mph29.9 mph0.01 inSnowLight Snow
1:02 AM33.8 °F33.8 °F100 %29.27 in9.0 miEast (80°)24.2 mph33.4 mph0.00 inOvercast
1:53 AM34.0 °F33.1 °F96 %29.30 in10.0 miEast (80°)16.1 mph27.6 mph0.00 inOvercast
3:53 AM34.0 °F32.0 °F92 %29.33 in10.0 miENE (70°)10.4 mphScattered Clouds
4:53 AM36.0 °F30.9 °F82 %29.34 in10.0 miEast (80°)17.3 mph26.5 mphOvercast
5:31 AM35.6 °F30.2 °F81 %29.33 in10.0 miEast (100°)11.5 mph23.0 mphMostly Cloudy
5:44 AM35.6 °F30.2 °F81 %29.33 in10.0 miESE (120°)16.1 mph27.6 mphScattered Clouds
5:53 AM37.0 °F28.0 °F70 %29.34 in10.0 miEast (90°)19.6 mph28.8 mphMostly Cloudy
6:53 AM36.0 °F28.0 °F73 %29.34 in10.0 miEast (90°)12.7 mphClear
7:53 AM35.1 °F30.9 °F85 %29.34 in10.0 miENE (70°)10.4 mph21.9 mphClear
8:53 AM35.1 °F30.0 °F82 %29.34 in10.0 miENE (70°)12.7 mphClear
9:53 AM37.0 °F30.0 °F76 %29.35 in10.0 miEast (90°)15.0 mph21.9 mphClear
10:53 AM37.0 °F30.0 °F76 %29.36 in10.0 miEast (90°)15.0 mph26.5 mphClear
11:53 AM37.9 °F28.0 °F68 %29.39 in10.0 miEast (90°)17.3 mphScattered Clouds
12:53 PM37.0 °F28.9 °F73 %29.40 in10.0 miENE (60°)20.7 mph27.6 mphMostly Cloudy
1:53 PM37.0 °F30.0 °F76 %29.41 in10.0 miENE (70°)13.8 mphMostly Cloudy
2:53 PM36.0 °F30.9 °F82 %29.40 in10.0 miENE (60°)18.4 mph25.3 mphMostly Cloudy
3:53 PM36.0 °F32.0 °F86 %29.41 in10.0 miEast (80°)17.3 mph28.8 mphMostly Cloudy
4:53 PM35.1 °F30.9 °F85 %29.43 in10.0 miEast (80°)12.7 mph19.6 mph0.00 inMostly Cloudy
5:53 PM36.0 °F30.9 °F82 %29.44 in10.0 miEast (100°)13.8 mphMostly Cloudy
6:12 PM35.6 °F30.2 °F81 %29.44 in10.0 miESE (110°)11.5 mphMostly Cloudy
6:53 PM36.0 °F30.9 °F82 %29.47 in10.0 miESE (120°)9.2 mph18.4 mphMostly Cloudy
7:53 PM36.0 °F30.9 °F82 %29.47 in10.0 miEast (90°)12.7 mphOvercast
8:53 PM36.0 °F32.0 °F86 %29.47 in10.0 miEast (90°)16.1 mph23.0 mphMostly Cloudy
9:53 PM36.0 °F30.0 °F79 %29.49 in10.0 miEast (90°)15.0 mphScattered Clouds
10:53 PM34.0 °F32.0 °F92 %29.51 in10.0 miEast (100°)5.8 mphPartly Cloudy
11:53 PM34.0 °F30.9 °F89 %29.52 in10.0 miEast (90°)6.9 mphScattered Clouds
Hourly data recorded from PAIL, located miles away from Lake Clark National Park, Alaska







STORIES FROM OUR PARTNERS